Theta_e
312 312 313 312 312 312 311 311 311 311 312 312 313 314 316 318 318 318 321 325 325 320 318 323 326 328 329 335 336 337 338 341 338 337 343 343 342 339 338 338 339 339 339 338 337
312 312 313 313 312 312 312 312 312 312 312 314 315 316 318 319 319 322 328 324 320 318 324 328 328 328 332 336 336 337 336 339 336 333 342 341 341 340 337 337 336 338 338 337 336
311 312 313 313 312 312 312 312 312 313 314 316 316 318 319 321 323 327 324 319 320 324 328 327 326 326 328 337 337 337 336 334 337 340 343 342 341 339 337 337 335 334 335 333 334
311 312 313 313 313 312 312 312 313 314 316 317 319 320 321 322 329 322 322 323 323 325 326 327 327 331 336 340 334 339 336 339 340 340 342 342 339 336 337 335 335 335 333 330 331
312 312 313 314 313 313 313 313 313 316 317 319 319 320 321 324 329 324 323 322 323 324 324 327 328 332 334 337 336 337 336 340 341 341 340 339 336 335 335 334 334 331 330 329 325
312 313 315 314 314 313 313 314 315 317 318 319 320 320 321 328 324 323 324 325 328 329 329 328 331 335 336 336 336 334 332 338 340 339 339 336 335 336 334 333 332 330 328 324 324
313 316 316 315 314 314 314 315 316 318 319 319 320 321 322 327 324 325 329 326 327 327 329 333 333 333 336 338 337 337 333 336 331 335 339 338 339 336 334 333 331 328 326 324 326
314 316 316 315 315 314 314 316 317 319 318 320 321 322 325 325 325 326 327 326 327 328 333 336 335 335 336 334 334 337 338 337 329 332 338 339 345 336 334 333 332 330 327 326 327
315 317 316 315 316 315 315 317 318 319 321 322 323 329 329 325 326 325 325 326 326 329 331 331 333 337 333 334 338 335 335 338 336 330 332 336 342 337 335 334 333 331 329 327 328
314 317 316 316 319 318 317 318 319 320 321 324 323 326 327 325 325 326 326 326 326 326 326 327 328 326 333 333 335 339 338 336 335 334 333 333 333 335 331 336 333 331 329 328 328
313 318 317 320 321 321 320 319 323 324 322 324 322 322 328 326 324 325 325 325 325 325 324 326 324 323 325 334 335 337 336 336 335 331 330 332 331 335 336 336 332 331 329 329 329
313 318 318 321 321 322 320 323 330 327 327 326 327 329 327 323 324 326 325 325 325 323 324 326 328 332 332 333 332 332 334 337 336 333 329 341 339 334 336 336 332 330 329 329 328
313 317 318 321 322 322 324 327 326 325 327 328 329 328 327 325 325 324 324 324 324 322 328 331 332 333 335 333 334 332 333 335 334 334 331 337 330 338 333 331 330 326 323 327 328
313 316 319 322 323 326 327 326 327 327 325 329 327 325 326 325 325 325 324 324 324 332 332 331 333 333 334 336 336 337 333 334 332 331 338 333 337 331 334 332 329 325 326 325 328
313 315 320 322 323 325 325 324 326 328 332 327 327 327 327 326 327 327 326 325 326 333 333 333 331 332 333 334 331 334 333 331 331 330 336 338 332 330 328 333 330 327 324 326 328
313 315 320 322 323 325 324 324 325 329 335 327 328 327 326 328 328 328 328 328 331 331 332 332 332 332 333 331 331 331 333 330 326 332 338 334 334 332 332 327 330 328 326 326 325
314 315 320 322 324 323 325 326 329 331 334 329 327 326 326 329 330 330 331 333 333 335 333 335 335 334 331 331 332 331 325 326 327 332 339 332 330 331 331 330 331 328 328 326 324
314 314 320 323 324 323 326 328 339 335 337 336 329 327 329 332 331 333 334 335 333 332 331 332 334 336 332 332 334 326 325 326 331 330 334 329 333 330 328 328 329 327 325 325 325
314 314 317 323 323 325 325 337 339 337 336 334 329 331 334 332 332 336 336 335 334 331 334 333 335 332 332 332 328 327 330 325 328 329 331 331 332 327 328 328 328 326 326 325 324
314 318 316 321 324 326 330 336 337 336 336 336 336 335 336 333 333 336 338 333 334 331 332 334 334 330 330 330 330 329 329 329 328 331 335 334 330 330 329 329 328 327 327 325 324
319 325 319 323 324 327 333 335 336 334 334 335 335 335 336 334 332 338 336 330 330 328 330 329 327 331 330 330 329 328 329 330 328 331 333 333 329 325 322 321 320 326 327 326 323
316 333 326 326 327 331 335 335 333 332 332 333 332 332 333 331 332 335 333 331 326 325 327 329 329 333 331 329 328 326 325 329 331 333 329 329 329 323 318 319 319 319 321 321 319
331 332 326 324 332 334 332 334 334 333 332 333 332 331 330 332 331 335 333 328 326 328 330 328 330 333 334 330 329 327 326 326 329 325 327 329 326 322 320 319 319 319 319 320 319
324 338 326 325 330 332 333 335 335 331 331 330 330 329 330 330 330 335 333 331 329 330 332 335 330 330 332 330 327 327 326 323 325 327 326 327 324 318 318 318 319 319 319 319 319
327 336 327 327 332 332 331 333 332 332 331 330 330 329 332 333 335 333 333 332 331 331 333 332 330 327 326 325 325 325 324 321 319 319 321 320 319 319 318 318 319 318 318 317 319
327 332 330 333 333 333 332 333 334 331 332 331 330 330 330 330 331 335 335 336 336 336 333 334 334 330 329 326 325 325 324 321 320 320 320 319 320 320 321 322 320 319 318 318 318
339 334 334 335 333 334 335 333 333 332 330 329 331 330 329 329 329 330 331 331 332 335 336 333 335 333 334 331 331 325 323 323 324 324 323 323 321 321 320 322 320 319 318 318 317
Wind_Speed
11 11 11 9 9 8 8 8 7 6 5 5 6 7 7 8 5 4 3 7 6 5 2 1 3 1 6 3 9 12 5 2 4 3 4 15 6 12 10 14 11 9 22 26 23
12 11 11 9 8 8 8 7 5 4 4 4 6 8 9 10 6 7 6 7 6 2 4 6 15 17 6 9 2 4 5 10 14 21 11 17 14 13 9 16 17 25 25 22 22
12 10 10 9 7 8 8 6 5 3 4 6 8 8 8 7 8 6 4 3 4 4 2 4 10 15 8 19 21 14 5 8 16 14 26 22 22 8 21 8 11 20 24 23 22
12 11 9 8 7 7 6 5 3 3 5 6 7 8 8 6 4 6 5 4 4 4 5 8 11 14 30 10 20 11 15 15 17 23 25 12 10 11 10 11 21 22 23 24 24
12 10 8 7 7 5 5 4 3 2 4 5 7 7 7 7 9 4 4 3 3 3 6 5 8 12 10 17 9 3 7 15 19 22 27 23 21 14 21 20 21 19 16 16 18
11 9 7 8 6 5 4 3 2 1 4 6 8 9 9 6 5 4 3 2 2 4 5 8 3 22 16 13 7 6 4 9 22 21 15 19 15 7 14 19 18 16 16 18 18
10 8 7 7 6 4 3 2 1 1 4 6 8 11 12 10 5 3 4 6 6 10 15 5 14 9 14 8 12 8 2 5 24 16 11 10 6 7 17 18 20 17 18 18 16
9 8 7 6 6 3 3 2 1 1 3 7 9 12 9 1 4 3 3 4 5 8 10 6 10 27 4 9 4 1 3 4 3 4 7 10 4 20 19 18 20 20 22 18 19
8 8 7 6 5 4 3 3 2 1 3 8 8 8 9 7 9 8 7 8 9 5 8 7 10 14 7 8 3 2 3 1 4 6 3 4 7 19 22 23 22 18 22 21 25
8 6 5 5 4 4 4 6 5 4 4 10 10 8 11 11 13 11 9 9 8 8 8 13 16 4 7 6 4 5 3 3 6 6 7 5 10 11 8 20 23 22 18 30 25
8 6 5 5 5 6 6 6 6 4 11 12 9 17 8 12 9 12 6 7 12 18 6 23 1 7 11 9 7 11 5 9 8 6 5 8 18 11 29 20 21 26 23 24 21
8 5 5 5 6 6 5 4 8 11 8 20 25 25 22 15 11 12 7 10 13 9 12 7 5 19 16 15 12 10 5 8 6 11 5 7 17 7 9 10 19 21 13 16 18
7 5 6 5 6 3 6 9 8 11 4 20 24 19 13 9 15 17 13 18 14 8 5 5 5 17 15 15 20 17 5 5 8 14 13 13 7 5 4 17 30 30 23 9 12
7 6 7 5 4 4 10 5 8 11 2 5 9 10 13 17 13 16 15 20 8 1 3 4 5 7 11 8 7 7 13 15 13 3 3 4 2 8 6 11 17 17 10 18 17
6 7 8 7 8 5 13 10 14 3 2 9 10 15 12 17 9 8 11 16 6 3 3 4 8 4 5 3 10 5 9 10 15 7 7 9 7 7 7 6 9 15 12 19 13
6 9 10 10 11 8 20 17 9 2 6 8 9 8 9 18 15 18 12 13 7 2 5 3 1 4 4 5 10 7 5 12 5 5 7 10 6 3 3 4 6 10 14 13 1
6 10 13 12 6 9 12 15 2 3 6 5 9 9 10 4 4 4 4 10 4 6 5 3 1 3 4 6 7 3 5 4 6 5 4 4 9 3 9 3 13 15 12 9 17
5 9 15 15 6 10 15 6 2 8 12 16 8 9 9 7 3 11 11 5 9 9 5 5 7 4 3 6 4 6 6 3 2 3 3 9 3 3 6 16 15 18 15 18 10
5 8 16 13 4 6 13 2 6 6 7 9 5 7 7 9 6 8 8 8 7 7 3 4 6 9 6 4 10 6 7 5 3 7 5 1 3 4 6 10 8 12 7 10 14
2 4 13 12 4 5 2 4 3 10 14 9 9 13 6 6 5 4 7 11 6 16 14 5 4 10 16 18 15 10 9 7 5 4 5 4 5 5 1 6 7 11 10 13 9
1 3 3 10 10 4 1 6 6 22 1 5 6 9 5 7 8 5 6 13 13 9 12 6 4 6 13 9 14 9 9 6 6 3 3 4 2 5 5 8 8 8 7 12 9
1 2 8 7 2 3 3 5 8 5 17 6 11 8 6 6 4 6 9 6 12 14 4 3 1 5 13 13 16 11 8 6 4 2 3 4 2 5 10 13 16 14 10 4 9
4 5 5 13 2 3 4 7 21 16 11 7 7 7 7 4 5 10 7 14 16 7 4 6 4 4 3 5 12 10 9 5 4 3 3 4 3 2 9 11 12 7 5 5 9
4 3 8 9 7 6 5 8 8 13 12 9 10 17 8 7 4 8 9 7 14 9 16 8 8 10 5 5 5 5 9 10 7 4 8 6 3 7 6 6 12 14 13 3 4
3 5 4 3 5 4 3 16 7 3 14 17 10 11 8 7 8 9 12 8 11 9 14 7 8 12 8 9 7 5 6 13 12 9 9 6 7 4 4 5 8 8 11 15 13
4 6 12 6 17 3 7 6 7 15 11 8 9 10 9 8 7 7 6 6 5 8 6 3 3 6 6 8 12 11 13 13 12 11 8 8 8 14 23 16 18 15 13 12 15
10 18 4 4 6 8 4 6 11 15 21 19 14 9 9 9 16 14 16 17 11 5 4 3 4 3 2 4 5 7 10 9 15 17 11 7 4 18 17 12 14 13 11 11 9
Wind_Direction
344 345 337 341 343 345 345 328 327 328 319 305 303 301 301 289 262 235 227 300 273 291 223 157 305 302 201 142 147 129 83 134 251 240 179 112 99 63 75 98 75 100 128 130 126
344 342 336 339 344 357 349 326 337 335 318 312 299 303 302 295 263 231 267 272 277 172 114 349 317 308 192 172 117 72 118 163 203 219 132 117 111 119 93 93 89 109 131 134 135
341 333 337 337 345 6 339 321 336 346 327 303 319 314 307 307 304 272 213 185 173 152 110 22 342 320 333 64 11 348 11 212 243 166 132 121 99 104 123 94 131 125 128 127 132
341 333 336 337 351 1 322 318 326 341 317 319 319 321 316 308 2 149 142 170 176 169 206 353 336 69 75 73 50 359 334 23 98 109 107 79 87 64 63 117 142 133 135 139 145
338 332 338 341 351 337 312 309 319 351 317 320 333 329 315 311 276 198 192 205 218 255 274 345 314 91 93 122 98 321 321 353 82 97 88 91 76 99 100 123 135 130 139 143 139
335 328 342 337 336 317 306 300 326 348 321 328 331 322 320 284 251 194 210 233 263 305 332 295 43 80 73 66 83 284 353 45 56 35 93 104 138 87 135 134 139 147 141 141 132
333 331 334 324 317 309 289 276 353 356 328 324 318 322 307 272 262 169 141 56 5 323 299 302 200 127 75 124 209 338 103 23 23 353 91 111 132 92 154 151 153 146 141 140 133
325 325 328 321 312 308 261 257 237 359 323 303 310 322 302 126 260 292 328 331 303 286 315 51 142 105 121 223 39 208 40 112 260 62 136 94 221 146 166 181 160 162 169 154 155
318 319 323 317 310 281 247 249 266 295 290 288 305 2 289 207 206 247 250 271 253 315 319 318 183 163 122 120 131 322 104 183 293 280 176 192 147 159 166 199 169 167 166 160 155
313 312 316 304 306 282 251 249 272 281 277 288 279 309 249 220 207 235 250 292 320 287 299 270 259 234 146 181 215 160 179 170 214 232 238 289 273 105 289 217 165 172 160 150 155
311 299 298 289 307 286 264 270 288 266 230 221 225 224 288 191 194 236 248 287 294 299 255 268 259 270 263 209 84 125 141 164 235 199 83 244 263 96 207 206 165 175 155 156 154
303 281 266 284 296 290 257 246 294 327 304 260 251 270 260 178 210 213 228 253 256 256 273 17 23 347 8 50 57 42 148 200 228 143 129 102 98 159 210 174 175 144 91 138 150
297 258 254 273 294 268 253 286 335 306 278 285 236 239 247 196 211 223 203 241 244 287 347 111 262 323 35 28 24 2 332 271 229 160 189 109 50 19 38 54 88 98 95 211 182
287 249 242 268 288 297 266 341 9 344 332 251 199 193 195 224 256 215 193 220 254 61 67 144 259 327 37 49 56 260 272 283 320 241 113 321 94 28 61 64 104 134 98 191 195
279 238 233 254 295 265 343 342 336 324 322 172 221 168 201 211 142 178 195 222 227 191 102 20 46 9 51 301 340 264 328 295 302 342 118 1 72 325 18 109 148 186 225 200 199
267 231 225 252 269 339 343 336 311 22 246 176 149 183 234 233 203 159 196 212 114 207 89 126 23 32 331 309 279 344 288 287 4 98 55 9 92 290 313 199 215 213 222 204 26
253 227 222 240 252 4 5 333 3 213 323 174 173 200 221 212 195 138 110 45 74 17 13 168 333 109 48 352 323 317 4 358 12 25 91 162 59 313 327 323 215 202 209 178 151
249 232 223 228 258 354 335 342 341 313 308 293 246 215 176 178 169 56 59 33 28 44 333 348 343 151 166 216 241 343 83 99 4 53 137 11 112 226 296 328 121 145 154 163 168
247 243 229 219 228 338 303 11 194 255 275 279 38 41 25 45 74 73 9 48 35 56 36 344 351 26 197 65 40 6 16 333 89 102 80 2 228 296 277 292 139 144 113 164 159
249 282 232 188 208 254 328 252 232 261 299 47 55 27 3 26 55 58 2 27 13 23 4 352 25 24 36 35 27 63 352 24 12 50 102 66 14 333 227 226 200 190 202 172 167
261 307 173 203 207 209 241 217 292 276 132 70 48 103 318 31 20 125 100 45 33 352 41 19 67 55 60 58 48 16 13 31 102 91 120 142 250 274 1 46 61 113 119 156 188
252 277 165 166 139 245 212 259 303 140 68 87 52 60 73 38 334 91 80 67 57 15 23 12 54 81 87 71 61 49 35 14 100 291 107 115 220 359 62 64 58 53 94 103 98
305 279 167 170 120 291 279 323 303 65 54 41 37 50 18 100 46 116 96 69 62 40 20 321 340 121 160 38 40 29 6 13 83 74 47 102 245 305 68 71 79 61 354 165 145
309 307 151 169 167 86 296 279 272 59 58 58 55 37 17 358 123 128 132 87 81 49 31 81 60 82 106 86 36 34 19 32 63 61 45 93 124 43 41 37 51 36 16 134 44
265 270 188 181 99 58 31 289 122 136 81 53 49 47 21 17 32 43 114 146 124 84 72 91 93 87 77 112 119 82 67 58 43 21 83 81 72 64 61 52 72 47 33 19 33
290 338 341 60 108 5 245 309 349 61 78 45 83 76 51 53 68 50 54 33 45 32 86 51 91 86 53 83 78 37 22 74 64 34 46 54 40 22 20 39 59 42 39 24 16
337 348 289 298 120 134 252 176 236 107 50 41 63 85 64 70 77 84 80 76 67 52 52 80 132 67 106 338 346 30 8 28 64 42 45 42 334 24 14 36 39 12 16 10 346